No particular awareness of the weather is required.    There are no Weather-warnings


Meteo18 Weather Cam more information Meteo18 Weather Cam


Thunder radar more information blitzortung!


Rain radar more information rain snow radar


Visit our other weather sites:

Template documentation
and downloads

And another site



Weather Underground History page Text

Daily Summary for February 25, 2016 Units:  Metric    English   Both
« Previous Day
Next Day »
Daily Weekly Monthly Yearly Custom
  High: Low: Average:
Temperature: 7.9 °C 2.2 °C 4.2 °C
Dew Point: 3.4 °C -0.6 °C 1.6 °C
Humidity: 97 % 56 % 84 %
Wind Speed: 14.5 km/h 0.0 km/h 3.5 km/h
Wind Gust: 19.3 km/h - -
Wind:- - ENE
Pressure: 1016.1 hPa 1009.4 hPa -
Precipitation: 0.5 mm    
Historical Graphs
 
 
Tabular Data for February 25, 2016
Time Temperature Dew Point Pressure Wind Wind Speed Wind Gust Humidity Rainfall Rate (Hourly)
00:02 2.9 °C 2.5 °C 1009.4 hPa East 1.6 km/h 16.1 km/h 97 % 0.3 mm
00:07 2.9 °C 2.5 °C 1009.4 hPa ENE 3.2 km/h 16.1 km/h 97 % 0.0 mm
00:12 2.9 °C 2.5 °C 1009.7 hPa East 4.8 km/h 16.1 km/h 97 % 0.0 mm
00:17 2.9 °C 2.5 °C 1009.7 hPa ESE 3.2 km/h 11.3 km/h 97 % 0.0 mm
00:22 2.8 °C 2.4 °C 1009.7 hPa ENE 8.0 km/h 11.3 km/h 97 % 0.0 mm
00:27 2.8 °C 2.4 °C 1009.7 hPa East 1.6 km/h 11.3 km/h 97 % 0.0 mm
00:32 2.8 °C 2.4 °C 1009.7 hPa East 8.0 km/h 9.7 km/h 97 % 0.0 mm
00:37 2.8 °C 2.4 °C 1009.7 hPa ENE 1.6 km/h 9.7 km/h 97 % 0.0 mm
00:42 2.7 °C 2.3 °C 1009.7 hPa SSE 1.6 km/h 11.3 km/h 97 % 0.0 mm
00:52 2.7 °C 2.3 °C 1009.7 hPa NE 6.4 km/h 11.3 km/h 97 % 0.0 mm
00:57 2.7 °C 2.3 °C 1010.0 hPa NE 4.8 km/h 11.3 km/h 97 % 0.0 mm
01:02 2.7 °C 2.3 °C 1010.0 hPa East 3.2 km/h 11.3 km/h 97 % 0.0 mm
01:07 2.7 °C 2.3 °C 1010.0 hPa SE 3.2 km/h 11.3 km/h 97 % 0.0 mm
01:12 2.6 °C 2.2 °C 1010.0 hPa ENE 8.0 km/h 11.3 km/h 97 % 0.0 mm
01:17 2.6 °C 2.2 °C 1010.0 hPa SE 4.8 km/h 11.3 km/h 97 % 0.0 mm
01:22 2.5 °C 2.1 °C 1010.0 hPa ENE 6.4 km/h 14.5 km/h 97 % 0.0 mm
01:27 2.5 °C 2.1 °C 1010.0 hPa ENE 9.7 km/h 14.5 km/h 97 % 0.0 mm
01:32 2.4 °C 2.0 °C 1010.0 hPa East 4.8 km/h 14.5 km/h 97 % 0.0 mm
01:37 2.4 °C 2.0 °C 1010.0 hPa NE 8.0 km/h 16.1 km/h 97 % 0.0 mm
01:42 2.4 °C 2.0 °C 1010.0 hPa NNE 4.8 km/h 16.1 km/h 97 % 0.0 mm
01:52 2.4 °C 2.0 °C 1010.0 hPa South 6.4 km/h 17.7 km/h 97 % 0.0 mm
01:57 2.4 °C 2.0 °C 1010.4 hPa East 8.0 km/h 16.1 km/h 97 % 0.3 mm
02:02 2.4 °C 2.0 °C 1010.4 hPa ENE 3.2 km/h 16.1 km/h 97 % 0.3 mm
02:07 2.4 °C 2.0 °C 1010.4 hPa NE 8.0 km/h 16.1 km/h 97 % 0.3 mm
02:12 2.3 °C 1.9 °C 1010.4 hPa ESE 4.8 km/h 16.1 km/h 97 % 0.3 mm
02:17 2.3 °C 1.9 °C 1010.7 hPa SSE 9.7 km/h 19.3 km/h 97 % 0.3 mm
02:22 2.3 °C 1.9 °C 1010.7 hPa East 4.8 km/h 19.3 km/h 97 % 0.3 mm
02:27 2.2 °C 1.8 °C 1010.7 hPa NE 9.7 km/h 19.3 km/h 97 % 0.3 mm
02:32 2.2 °C 1.8 °C 1010.7 hPa NE 6.4 km/h 17.7 km/h 97 % 0.3 mm
02:37 2.2 °C 1.8 °C 1010.7 hPa SE 3.2 km/h 16.1 km/h 97 % 0.3 mm
02:42 2.2 °C 1.8 °C 1010.7 hPa SE 4.8 km/h 16.1 km/h 97 % 0.3 mm
02:47 2.2 °C 1.8 °C 1010.7 hPa SE 4.8 km/h 16.1 km/h 97 % 0.3 mm
02:52 2.2 °C 1.8 °C 1010.7 hPa ENE 9.7 km/h 14.5 km/h 97 % 0.3 mm
02:57 2.2 °C 1.8 °C 1010.7 hPa NE 4.8 km/h 16.1 km/h 97 % 0.0 mm
03:07 2.2 °C 1.8 °C 1010.7 hPa East 9.7 km/h 16.1 km/h 97 % 0.3 mm
03:12 2.2 °C 1.8 °C 1010.7 hPa NE 3.2 km/h 16.1 km/h 97 % 0.3 mm
03:22 2.2 °C 1.8 °C 1010.7 hPa ESE 3.2 km/h 12.9 km/h 97 % 0.3 mm
03:32 2.2 °C 1.8 °C 1010.7 hPa ESE 1.6 km/h 12.9 km/h 97 % 0.3 mm
03:37 2.2 °C 1.8 °C 1010.7 hPa Calm   12.9 km/h 97 % 0.3 mm
03:42 2.2 °C 1.8 °C 1010.7 hPa NE 3.2 km/h 12.9 km/h 97 % 0.3 mm
03:47 2.2 °C 1.8 °C 1010.7 hPa NE 4.8 km/h 12.9 km/h 97 % 0.3 mm
03:52 2.2 °C 1.8 °C 1010.7 hPa East 3.2 km/h 9.7 km/h 97 % 0.3 mm
03:57 2.2 °C 1.8 °C 1010.7 hPa ENE 3.2 km/h 11.3 km/h 97 % 0.3 mm
04:02 2.2 °C 1.8 °C 1010.7 hPa East 3.2 km/h 11.3 km/h 97 % 0.3 mm
04:07 2.2 °C 1.8 °C 1010.7 hPa ESE 1.6 km/h 11.3 km/h 97 % 0.0 mm
04:12 2.2 °C 1.8 °C 1010.7 hPa Calm   11.3 km/h 97 % 0.0 mm
04:17 2.2 °C 1.8 °C 1010.7 hPa North 4.8 km/h 11.3 km/h 97 % 0.0 mm
04:22 2.2 °C 1.8 °C 1010.7 hPa ENE 1.6 km/h 9.7 km/h 97 % 0.0 mm
04:27 2.3 °C 1.9 °C 1010.7 hPa NE 8.0 km/h 14.5 km/h 97 % 0.0 mm
04:32 2.3 °C 1.9 °C 1010.7 hPa SSE 3.2 km/h 14.5 km/h 97 % 0.0 mm
04:37 2.3 °C 1.9 °C 1010.7 hPa East 6.4 km/h 14.5 km/h 97 % 0.0 mm
04:42 2.3 °C 1.9 °C 1010.7 hPa NNE 4.8 km/h 14.5 km/h 97 % 0.0 mm
04:47 2.3 °C 1.9 °C 1011.1 hPa ENE 4.8 km/h 14.5 km/h 97 % 0.0 mm
04:52 2.3 °C 1.9 °C 1011.1 hPa SE 3.2 km/h 12.9 km/h 97 % 0.0 mm
04:57 2.4 °C 2.0 °C 1011.1 hPa East 3.2 km/h 12.9 km/h 97 % 0.0 mm
05:02 2.4 °C 2.0 °C 1011.1 hPa East 1.6 km/h 12.9 km/h 97 % 0.0 mm
05:07 2.4 °C 2.0 °C 1011.1 hPa Calm   12.9 km/h 97 % 0.0 mm
05:12 2.4 °C 2.0 °C 1011.1 hPa East 3.2 km/h 12.9 km/h 97 % 0.0 mm
05:17 2.4 °C 2.0 °C 1011.1 hPa NE 4.8 km/h 11.3 km/h 97 % 0.0 mm
05:22 2.4 °C 1.8 °C 1011.1 hPa ENE 4.8 km/h 11.3 km/h 96 % 0.0 mm
05:32 2.5 °C 1.9 °C 1011.1 hPa ENE 3.2 km/h 16.1 km/h 96 % 0.0 mm
05:37 2.5 °C 1.9 °C 1011.4 hPa ESE 3.2 km/h 16.1 km/h 96 % 0.0 mm
05:42 2.5 °C 1.9 °C 1011.1 hPa Calm   16.1 km/h 96 % 0.0 mm
05:47 2.5 °C 1.9 °C 1011.4 hPa NE 1.6 km/h 16.1 km/h 96 % 0.0 mm
05:52 2.5 °C 1.9 °C 1011.4 hPa East 3.2 km/h 16.1 km/h 96 % 0.0 mm
06:02 2.5 °C 1.9 °C 1011.7 hPa NE 4.8 km/h 9.7 km/h 96 % 0.0 mm
06:07 2.5 °C 1.9 °C 1011.7 hPa ENE 1.6 km/h 9.7 km/h 96 % 0.0 mm
06:12 2.5 °C 1.9 °C 1011.7 hPa East 3.2 km/h 9.7 km/h 96 % 0.0 mm
06:17 2.6 °C 2.0 °C 1012.1 hPa NE 6.4 km/h 9.7 km/h 96 % 0.0 mm
06:22 2.6 °C 2.0 °C 1011.7 hPa ENE 1.6 km/h 9.7 km/h 96 % 0.0 mm
06:32 2.6 °C 2.0 °C 1012.1 hPa East 3.2 km/h 8.0 km/h 96 % 0.0 mm
06:37 2.6 °C 2.0 °C 1012.1 hPa Calm   8.0 km/h 96 % 0.0 mm
06:42 2.6 °C 2.0 °C 1012.1 hPa ENE 4.8 km/h 9.7 km/h 96 % 0.0 mm
06:47 2.6 °C 2.0 °C 1012.1 hPa East 3.2 km/h 9.7 km/h 96 % 0.0 mm
06:52 2.6 °C 2.0 °C 1012.1 hPa NE 3.2 km/h 9.7 km/h 96 % 0.0 mm
07:07 2.7 °C 2.1 °C 1012.4 hPa East 1.6 km/h 12.9 km/h 96 % 0.0 mm
07:12 2.7 °C 2.1 °C 1012.4 hPa NE 1.6 km/h 9.7 km/h 96 % 0.0 mm
07:17 2.7 °C 2.1 °C 1012.4 hPa ENE 6.4 km/h 9.7 km/h 96 % 0.0 mm
07:22 2.7 °C 2.1 °C 1012.4 hPa NE 6.4 km/h 12.9 km/h 96 % 0.0 mm
07:27 2.7 °C 2.1 °C 1012.4 hPa NNE 3.2 km/h 12.9 km/h 96 % 0.0 mm
07:32 2.7 °C 2.1 °C 1012.4 hPa NE 6.4 km/h 12.9 km/h 96 % 0.0 mm
07:37 2.6 °C 2.0 °C 1012.4 hPa NE 4.8 km/h 12.9 km/h 96 % 0.0 mm
07:42 2.6 °C 2.0 °C 1012.4 hPa ENE 1.6 km/h 12.9 km/h 96 % 0.0 mm
07:47 2.6 °C 2.0 °C 1012.4 hPa SE 3.2 km/h 12.9 km/h 96 % 0.0 mm
07:52 2.6 °C 2.0 °C 1012.4 hPa ENE 1.6 km/h 14.5 km/h 96 % 0.0 mm
07:57 2.6 °C 2.0 °C 1012.4 hPa NNE 3.2 km/h 14.5 km/h 96 % 0.0 mm
08:02 2.6 °C 2.0 °C 1012.8 hPa ENE 8.0 km/h 9.7 km/h 96 % 0.0 mm
08:07 2.6 °C 2.0 °C 1012.8 hPa North 4.8 km/h 9.7 km/h 96 % 0.0 mm
08:12 2.6 °C 2.0 °C 1012.8 hPa NNE 3.2 km/h 11.3 km/h 96 % 0.0 mm
08:17 2.7 °C 2.1 °C 1012.8 hPa ENE 3.2 km/h 11.3 km/h 96 % 0.0 mm
08:22 2.7 °C 2.1 °C 1013.1 hPa ENE 4.8 km/h 11.3 km/h 96 % 0.0 mm
08:32 2.8 °C 2.2 °C 1013.1 hPa ENE 6.4 km/h 11.3 km/h 96 % 0.0 mm
08:37 2.8 °C 2.2 °C 1013.1 hPa NE 8.0 km/h 11.3 km/h 96 % 0.0 mm
08:47 2.9 °C 2.3 °C 1013.1 hPa ENE 6.4 km/h 14.5 km/h 96 % 0.0 mm
08:52 2.9 °C 2.3 °C 1013.4 hPa ESE 1.6 km/h 11.3 km/h 96 % 0.0 mm
08:57 2.9 °C 2.3 °C 1013.4 hPa ENE 3.2 km/h 11.3 km/h 96 % 0.0 mm
09:02 3.0 °C 2.4 °C 1013.4 hPa East 1.6 km/h 11.3 km/h 96 % 0.0 mm
09:07 3.1 °C 2.5 °C 1013.4 hPa Calm   11.3 km/h 96 % 0.0 mm
09:12 3.1 °C 2.4 °C 1013.4 hPa East 4.8 km/h 9.7 km/h 95 % 0.0 mm
09:17 3.0 °C 2.3 °C 1013.8 hPa South 3.2 km/h 9.7 km/h 95 % 0.0 mm
09:22 2.9 °C 2.2 °C 1013.8 hPa Calm   11.3 km/h 95 % 0.0 mm
09:32 3.2 °C 2.5 °C 1013.8 hPa Calm   11.3 km/h 95 % 0.0 mm
09:37 3.3 °C 2.4 °C 1013.8 hPa NE 4.8 km/h 11.3 km/h 94 % 0.0 mm
09:42 3.6 °C 2.7 °C 1013.8 hPa NE 3.2 km/h 6.4 km/h 94 % 0.0 mm
09:52 3.9 °C 2.7 °C 1013.8 hPa ENE 3.2 km/h 9.7 km/h 92 % 0.0 mm
09:57 4.2 °C 3.0 °C 1014.1 hPa Calm   9.7 km/h 92 % 0.0 mm
10:02 4.4 °C 2.9 °C 1014.1 hPa SE 3.2 km/h 9.7 km/h 90 % 0.0 mm
10:12 4.6 °C 2.9 °C 1014.1 hPa Calm   9.7 km/h 89 % 0.0 mm
10:17 4.8 °C 3.1 °C 1014.4 hPa ENE 8.0 km/h 12.9 km/h 89 % 0.0 mm
10:22 4.9 °C 3.1 °C 1014.4 hPa East 3.2 km/h 12.9 km/h 88 % 0.0 mm
10:32 4.9 °C 2.9 °C 1014.4 hPa ENE 4.8 km/h 12.9 km/h 87 % 0.0 mm
10:37 5.2 °C 3.4 °C 1014.4 hPa NE 8.0 km/h 11.3 km/h 88 % 0.0 mm
10:47 4.9 °C 2.8 °C 1014.4 hPa ENE 1.6 km/h 12.9 km/h 86 % 0.0 mm
10:52 5.1 °C 2.8 °C 1014.4 hPa ENE 3.2 km/h 12.9 km/h 85 % 0.0 mm
11:02 5.6 °C 3.1 °C 1014.4 hPa NNE 1.6 km/h 11.3 km/h 84 % 0.0 mm
11:17 5.8 °C 3.3 °C 1014.4 hPa NE 4.8 km/h 9.7 km/h 84 % 0.0 mm
11:37 5.8 °C 2.6 °C 1014.8 hPa NE 3.2 km/h 12.9 km/h 80 % 0.0 mm
11:42 6.1 °C 2.6 °C 1014.8 hPa ESE 8.0 km/h 11.3 km/h 78 % 0.0 mm
11:47 6.0 °C 2.3 °C 1014.8 hPa ENE 8.0 km/h 11.3 km/h 77 % 0.0 mm
11:57 6.3 °C 2.4 °C 1014.8 hPa NNE 6.4 km/h 12.9 km/h 76 % 0.0 mm
12:07 6.3 °C 2.0 °C 1014.8 hPa North 3.2 km/h 16.1 km/h 74 % 0.0 mm
12:17 6.6 °C 2.7 °C 1014.8 hPa NNE 6.4 km/h 19.3 km/h 76 % 0.0 mm
12:22 6.6 °C 1.7 °C 1014.8 hPa NNE 11.3 km/h 17.7 km/h 71 % 0.0 mm
12:32 6.8 °C 1.9 °C 1014.8 hPa Calm   14.5 km/h 71 % 0.0 mm
12:37 7.1 °C 2.0 °C 1014.8 hPa NE 6.4 km/h 14.5 km/h 70 % 0.0 mm
12:42 7.2 °C 2.5 °C 1014.8 hPa ESE 3.2 km/h 11.3 km/h 72 % 0.0 mm
12:47 7.1 °C 2.0 °C 1014.8 hPa NE 3.2 km/h 11.3 km/h 70 % 0.0 mm
12:52 6.9 °C 2.0 °C 1014.8 hPa NNE 8.0 km/h 12.9 km/h 71 % 0.0 mm
12:57 6.9 °C 1.6 °C 1014.8 hPa NE 6.4 km/h 12.9 km/h 69 % 0.0 mm
13:02 7.3 °C 2.0 °C 1014.8 hPa NNW 6.4 km/h 12.9 km/h 69 % 0.0 mm
13:07 7.4 °C 1.9 °C 1014.8 hPa NE 4.8 km/h 12.9 km/h 68 % 0.0 mm
13:12 7.5 °C 2.0 °C 1014.8 hPa ENE 8.0 km/h 14.5 km/h 68 % 0.0 mm
13:17 7.4 °C 1.9 °C 1014.8 hPa ENE 4.8 km/h 14.5 km/h 68 % 0.0 mm
13:22 7.5 °C 1.8 °C 1014.8 hPa NNE 4.8 km/h 14.5 km/h 67 % 0.0 mm
13:37 7.5 °C 0.9 °C 1014.4 hPa NNE 14.5 km/h 14.5 km/h 63 % 0.0 mm
13:42 7.6 °C 1.0 °C 1014.4 hPa ESE 1.6 km/h 11.3 km/h 63 % 0.0 mm
13:47 7.7 °C 1.5 °C 1014.4 hPa ESE 8.0 km/h 16.1 km/h 65 % 0.0 mm
13:57 7.6 °C 1.2 °C 1014.4 hPa Calm   12.9 km/h 64 % 0.0 mm
14:02 7.6 °C 1.0 °C 1014.4 hPa NE 4.8 km/h 12.9 km/h 63 % 0.0 mm
14:12 7.4 °C 1.0 °C 1014.4 hPa ENE 6.4 km/h 9.7 km/h 64 % 0.0 mm
14:17 7.4 °C 0.6 °C 1014.4 hPa ENE 3.2 km/h 17.7 km/h 62 % 0.0 mm
14:22 7.6 °C 1.2 °C 1014.4 hPa NE 12.9 km/h 17.7 km/h 64 % 0.0 mm
14:27 7.6 °C 1.2 °C 1014.4 hPa ENE 9.7 km/h 17.7 km/h 64 % 0.0 mm
14:32 7.7 °C 1.5 °C 1014.4 hPa NE 11.3 km/h 16.1 km/h 65 % 0.0 mm
14:37 7.9 °C 1.9 °C 1014.4 hPa ESE 3.2 km/h 16.1 km/h 66 % 0.0 mm
14:42 7.8 °C 1.0 °C 1014.4 hPa Calm   12.9 km/h 62 % 0.0 mm
14:47 7.9 °C 1.5 °C 1014.4 hPa ENE 1.6 km/h 11.3 km/h 64 % 0.0 mm
14:52 7.6 °C 0.6 °C 1014.4 hPa NE 8.0 km/h 11.3 km/h 61 % 0.0 mm
14:57 7.3 °C -0.2 °C 1014.4 hPa Calm   14.5 km/h 59 % 0.0 mm
15:02 7.6 °C 1.0 °C 1014.4 hPa NE 8.0 km/h 14.5 km/h 63 % 0.0 mm
15:07 7.8 °C 1.2 °C 1014.4 hPa NNE 6.4 km/h 14.5 km/h 63 % 0.0 mm
15:12 7.9 °C 1.1 °C 1014.4 hPa ENE 9.7 km/h 16.1 km/h 62 % 0.0 mm
15:17 7.9 °C 1.1 °C 1014.4 hPa ESE 6.4 km/h 16.1 km/h 62 % 0.0 mm
15:22 7.8 °C 0.7 °C 1014.4 hPa ESE 4.8 km/h 17.7 km/h 61 % 0.0 mm
15:27 7.9 °C -0.1 °C 1014.4 hPa ENE 4.8 km/h 17.7 km/h 57 % 0.0 mm
15:32 7.8 °C 1.0 °C 1014.4 hPa NE 8.0 km/h 17.7 km/h 62 % 0.0 mm
15:37 7.7 °C 0.9 °C 1014.4 hPa ESE 3.2 km/h 16.1 km/h 62 % 0.0 mm
15:42 7.8 °C -0.2 °C 1014.4 hPa ENE 4.8 km/h 16.1 km/h 57 % 0.0 mm
15:47 7.9 °C -0.3 °C 1014.4 hPa NE 3.2 km/h 16.1 km/h 56 % 0.0 mm
15:52 7.8 °C 0.3 °C 1014.4 hPa ENE 11.3 km/h 16.1 km/h 59 % 0.0 mm
15:57 7.1 °C 0.3 °C 1014.4 hPa ENE 6.4 km/h 16.1 km/h 62 % 0.0 mm
16:07 6.3 °C 0.0 °C 1014.4 hPa SE 3.2 km/h 17.7 km/h 64 % 0.0 mm
16:12 6.3 °C 0.4 °C 1014.4 hPa ENE 6.4 km/h 17.7 km/h 66 % 0.0 mm
16:17 6.9 °C 0.6 °C 1014.4 hPa East 6.4 km/h 14.5 km/h 64 % 0.0 mm
16:22 7.3 °C 1.4 °C 1014.4 hPa ENE 12.9 km/h 14.5 km/h 66 % 0.0 mm
16:27 7.1 °C 0.7 °C 1014.4 hPa SE 3.2 km/h 16.1 km/h 64 % 0.0 mm
16:32 6.8 °C 1.1 °C 1014.4 hPa NE 6.4 km/h 16.1 km/h 67 % 0.0 mm
16:37 6.6 °C 0.5 °C 1014.4 hPa NE 6.4 km/h 16.1 km/h 65 % 0.0 mm
16:42 6.5 °C 0.8 °C 1014.8 hPa NNE 3.2 km/h 12.9 km/h 67 % 0.0 mm
16:52 6.4 °C 0.7 °C 1014.4 hPa NE 4.8 km/h 11.3 km/h 67 % 0.0 mm
16:57 6.3 °C 0.6 °C 1014.4 hPa ENE 1.6 km/h 12.9 km/h 67 % 0.0 mm
17:02 6.3 °C 1.2 °C 1014.4 hPa East 3.2 km/h 12.9 km/h 70 % 0.0 mm
17:07 6.3 °C 1.0 °C 1014.4 hPa ESE 1.6 km/h 9.7 km/h 69 % 0.0 mm
17:12 6.3 °C 1.2 °C 1014.4 hPa East 1.6 km/h 9.7 km/h 70 % 0.0 mm
17:32 6.6 °C -0.6 °C 1014.4 hPa NE 4.8 km/h 9.7 km/h 60 % 0.0 mm
17:37 6.4 °C -0.4 °C 1014.8 hPa NNE 3.2 km/h 9.7 km/h 62 % 0.0 mm
17:42 6.2 °C 0.1 °C 1014.8 hPa ENE 1.6 km/h 9.7 km/h 65 % 0.0 mm
17:47 6.0 °C -0.3 °C 1014.8 hPa Calm   9.7 km/h 64 % 0.0 mm
17:57 5.7 °C 0.5 °C 1014.8 hPa ENE 1.6 km/h 9.7 km/h 69 % 0.0 mm
18:02 5.6 °C 0.8 °C 1014.8 hPa Calm   9.7 km/h 71 % 0.0 mm
18:12 5.2 °C 0.8 °C 1015.1 hPa Calm   8.0 km/h 73 % 0.0 mm
18:17 4.9 °C 0.7 °C 1015.1 hPa Calm   4.8 km/h 74 % 0.0 mm
18:32 4.8 °C 0.9 °C 1015.5 hPa Calm   1.6 km/h 76 % 0.0 mm
18:37 4.8 °C 1.1 °C 1015.5 hPa Calm   1.6 km/h 77 % 0.0 mm
18:42 4.8 °C 1.1 °C 1015.5 hPa Calm   1.6 km/h 77 % 0.0 mm
18:57 4.8 °C 1.3 °C 1015.5 hPa Calm   1.6 km/h 78 % 0.0 mm
19:02 4.7 °C 1.0 °C 1015.5 hPa Calm   1.6 km/h 77 % 0.0 mm
19:07 4.7 °C 1.0 °C 1015.5 hPa Calm   1.6 km/h 77 % 0.0 mm
19:12 4.7 °C 1.2 °C 1015.5 hPa Calm   1.6 km/h 78 % 0.0 mm
19:17 4.7 °C 1.2 °C 1015.5 hPa Calm   1.6 km/h 78 % 0.0 mm
19:22 4.7 °C 1.4 °C 1015.8 hPa Calm   1.6 km/h 79 % 0.0 mm
19:27 4.6 °C 1.3 °C 1015.8 hPa Calm   1.6 km/h 79 % 0.0 mm
19:32 4.6 °C 1.1 °C 1015.8 hPa Calm   1.6 km/h 78 % 0.0 mm
19:37 4.6 °C 1.4 °C 1015.8 hPa Calm   1.6 km/h 80 % 0.0 mm
19:42 4.6 °C 1.6 °C 1015.8 hPa Calm   1.6 km/h 81 % 0.0 mm
19:47 4.5 °C 1.5 °C 1015.8 hPa Calm   1.6 km/h 81 % 0.0 mm
19:52 4.4 °C 1.4 °C 1015.8 hPa Calm   1.6 km/h 81 % 0.0 mm
19:57 4.4 °C 1.3 °C 1015.8 hPa Calm   1.6 km/h 80 % 0.0 mm
20:02 4.4 °C 1.3 °C 1015.8 hPa Calm   1.6 km/h 80 % 0.0 mm
20:07 4.4 °C 1.4 °C 1015.8 hPa Calm   1.6 km/h 81 % 0.0 mm
20:12 4.3 °C 1.5 °C 1015.8 hPa Calm   1.6 km/h 82 % 0.0 mm
20:17 4.1 °C 1.3 °C 1015.8 hPa Calm   1.6 km/h 82 % 0.0 mm
20:22 4.0 °C 1.4 °C 1015.8 hPa Calm   1.6 km/h 83 % 0.0 mm
20:27 3.9 °C 1.3 °C 1015.8 hPa Calm     83 % 0.0 mm
20:32 3.9 °C 1.4 °C 1015.8 hPa Calm     84 % 0.0 mm
20:52 3.7 °C 1.4 °C 1015.8 hPa Calm     85 % 0.0 mm
21:02 3.8 °C 1.7 °C 1016.1 hPa Calm   1.6 km/h 86 % 0.0 mm
21:17 3.8 °C 1.7 °C 1015.8 hPa Calm   1.6 km/h 86 % 0.0 mm
21:22 3.8 °C 1.7 °C 1015.8 hPa Calm   1.6 km/h 86 % 0.0 mm
21:27 3.9 °C 1.8 °C 1016.1 hPa Calm   1.6 km/h 86 % 0.0 mm
21:32 3.9 °C 1.6 °C 1016.1 hPa Calm   1.6 km/h 85 % 0.0 mm
21:37 3.9 °C 1.6 °C 1016.1 hPa Calm   1.6 km/h 85 % 0.0 mm
21:42 3.9 °C 1.8 °C 1016.1 hPa Calm   1.6 km/h 86 % 0.0 mm
21:47 3.8 °C 1.5 °C 1016.1 hPa NE 1.6 km/h 1.6 km/h 85 % 0.0 mm
21:52 3.9 °C 1.3 °C 1016.1 hPa Calm   1.6 km/h 83 % 0.0 mm
21:57 3.9 °C 1.1 °C 1016.1 hPa NE 1.6 km/h 4.8 km/h 82 % 0.0 mm
22:02 3.9 °C 0.8 °C 1016.1 hPa NE 1.6 km/h 4.8 km/h 80 % 0.0 mm
22:07 3.9 °C 0.8 °C 1016.1 hPa Calm   4.8 km/h 80 % 0.0 mm
22:12 3.8 °C 0.7 °C 1016.1 hPa Calm   4.8 km/h 80 % 0.0 mm
22:17 3.8 °C 0.8 °C 1016.1 hPa Calm   4.8 km/h 81 % 0.0 mm
22:22 3.7 °C 0.7 °C 1016.1 hPa NE 3.2 km/h 4.8 km/h 81 % 0.0 mm
22:32 3.6 °C 0.6 °C 1016.1 hPa Calm   3.2 km/h 81 % 0.0 mm
22:37 3.5 °C 0.5 °C 1016.1 hPa Calm   4.8 km/h 81 % 0.0 mm
22:42 3.4 °C 0.4 °C 1016.1 hPa Calm   4.8 km/h 81 % 0.0 mm
22:47 3.4 °C 0.4 °C 1016.1 hPa Calm   4.8 km/h 81 % 0.0 mm
22:52 3.3 °C 0.4 °C 1016.1 hPa Calm   1.6 km/h 81 % 0.0 mm
23:02 3.2 °C 0.3 °C 1016.1 hPa Calm   1.6 km/h 81 % 0.0 mm
23:12 3.1 °C 0.3 °C 1016.1 hPa NE 1.6 km/h 3.2 km/h 82 % 0.0 mm
23:17 2.9 °C 0.0 °C 1016.1 hPa Calm   3.2 km/h 81 % 0.0 mm
23:22 3.0 °C 0.1 °C 1015.8 hPa Calm   4.8 km/h 81 % 0.0 mm
23:27 2.9 °C 0.0 °C 1015.8 hPa Calm   4.8 km/h 81 % 0.0 mm
23:32 2.9 °C 0.1 °C 1016.1 hPa Calm   4.8 km/h 82 % 0.0 mm
23:37 2.8 °C 0.2 °C 1015.8 hPa Calm   1.6 km/h 83 % 0.0 mm
23:42 2.7 °C 0.3 °C 1015.8 hPa Calm   1.6 km/h 84 % 0.0 mm
23:52 2.5 °C 0.2 °C 1015.8 hPa Calm   1.6 km/h 85 % 0.0 mm
23:57 2.5 °C 0.2 °C 1015.8 hPa Calm   1.6 km/h 85 % 0.0 mm
Meteo18
Compliments of Weather Underground - 4 mb

Script developed by  Jim McMurry - jmcmurry@mwt.net Adapted for the template by  Wim van der Kuil - Leuven-Template.eu

You find our weather info also at:

European Weather Network

Weather Underground

Equipment we use:

Weather-station
Davis Vue

Weather-program
Meteohub

Weather-server
Raspberry PI 2 B+

Provider
1 and 1

Davis Vue

Meteohub

Raspberry PI 2 B+

1 and 1